NOAA 16 DEB, 41379

Orbit data source: Space-Track

NOAA 16 DEB, 41379 is space debris in SSO originally from a launch on Thu, 21 Sep 2000 UTC launched from the Air Force Western Test Range (AFWTR). Debris objects in space refer to the collection of defunct objects orbiting the Earth. Examples of debris include non-operational satellites, rocket bodies, and fragments generated from explosions, collisions, or faulty payload assembly.

Loading next visibility...
Identifier
41379, 2000-055JY
Orbit
SSO
Country
Flag of USUS
Related business
Manufacturer
Unknown
Mission
Spacecraft
Bus & Motor
Unknown
Mass
Unknown
Launch date (UTC)
2000-09-21 (25 years ago)
Launch vehicle
Unknown
Launch site
Air Force Western Test Range (AFWTR)
Object type
Payload
Rocket body
Debris
Shape & HBR
Unknown shape, 0.1 m
Radar Cross Section
Small (<0.1 m²)

Expand to show TLE details & history
Last TLE update: 1 day ago

TLE from 1 day ago
0 NOAA 16 DEB
1 41379U 00055JY  25299.80836291  .00009213  00000-0  26850-2 0  9996
2 41379  98.8335  70.1871 0023929  65.4508 294.9172 14.44207564508676
Epoch: 2025-10-26T19:24Z
TLE epoch observation values (Epoch: 2025-10-26T19:24:02.555Z)
Latitude
-0.00003°
Longitude
103.75721°
Altitude
740.425 km
Speed
7.488 km/s
True Right ascension
04h 40m 44s
True Declination
0° 00' 00"
Sunlit
Object was in full shadow at epoch
Visualization orbit readout
Latitude
Unknown
Longitude
Unknown
Altitude
Unknown
Speed
Unknown
Apparent Right ascension
Unknown
Apparent Declination
Unknown
Sunlit
N/A
Visualization observer readout
Local Sidereal Time
19:18:36
Azimuth
Unknown
Elevation
Unknown
Doppler factor
Unknown
Orbital elements
Apogee altitude
758.8 km
Perigee altitude
724.726 km
Semi-major axis
7,119.9 km
Eccentricity
0.00239
Inclination
98.8335°
RAAN
70.1871°
Arg. of periapsis
65.4508°
True anomaly
294.6682°
Mean anomaly
294.9172°
Eccentric anomaly
294.79273°
Mean motion
3.6127 °/min
Orbital period
99.65 mins
BSTAR
0.002685
Loading maneuver chart data...
Computing Atmospheric mass density...
Loading historical data...
Loading historical data...
Loading historical data...
Loading historical data...
Loading historical data...
Loading historical data...
Loading historical data...

Documentation

Showing up to 5 results
|